| time (UTC) | temp F | wind direction | speed MPH | gust MPH | rain 1hr in | rain 24hr in | rain mn in | humidity % | barometer mb |
| 20260504141126 | 45 | 208 | 5.0 | 11.0 | 0.00 | 0.00 | 0.00 | 91 | 1013.1 |
| 20260504140627 | 45 | 217 | 0.0 | 11.0 | 0.00 | 0.00 | 0.00 | 91 | 1013.2 |
| 20260504140126 | 45 | 226 | 4.0 | 10.0 | 0.00 | 0.00 | 0.00 | 91 | 1013.5 |
| 20260504130626 | 45 | 239 | 4.0 | 11.0 | 0.00 | 0.00 | 0.00 | 92 | 1013.0 |
| 20260504130126 | 45 | 236 | 4.0 | 11.0 | 0.00 | 0.00 | 0.00 | 92 | 1012.9 |
| 20260504120126 | 46 | 242 | 8.0 | 12.0 | 0.00 | 0.00 | 0.00 | 92 | 1013.3 |
| 20260504110625 | 46 | 260 | 4.0 | 14.0 | 0.00 | 0.00 | 0.00 | 91 | 1013.6 |
| 20260504110125 | 46 | 259 | 8.0 | 14.0 | 0.00 | 0.00 | 0.00 | 91 | 1013.6 |
| 20260504100124 | 47 | 243 | 8.0 | 12.0 | 0.00 | 0.00 | 0.00 | 91 | 1013.7 |
| 20260504090124 | 47 | 254 | 7.0 | 10.0 | 0.00 | 0.00 | 0.00 | 89 | 1014.3 |
| 20260504081623 | 47 | 209 | 3.0 | 13.0 | 0.00 | 0.00 | 0.00 | 89 | 1014.7 |
| 20260504081123 | 47 | 250 | 8.0 | 11.0 | 0.00 | 0.00 | 0.00 | 89 | 1014.8 |
| 20260504080623 | 47 | 232 | 7.0 | 9.0 | 0.00 | 0.00 | 0.00 | 89 | 1014.9 |
| 20260504080123 | 47 | 217 | 6.0 | 13.0 | 0.00 | 0.00 | 0.00 | 89 | 1015.1 |
| 20260504070152 | 48 | 227 | 9.0 | 14.0 | 0.00 | 0.00 | 0.00 | 88 | 1014.9 |
| 20260504060122 | 48 | 229 | 2.0 | 10.0 | 0.00 | 0.00 | 0.00 | 89 | 1014.6 |
| 20260504050621 | 48 | 248 | 1.0 | 9.0 | 0.00 | 0.00 | 0.00 | 88 | 1014.9 |
| 20260504050151 | 48 | 246 | 3.0 | 9.0 | 0.00 | 0.00 | 0.00 | 88 | 1014.9 |
| 20260504045621 | 48 | 233 | 5.0 | 12.0 | 0.00 | 0.00 | 0.00 | 88 | 1014.6 |
| 20260504045121 | 48 | 252 | 5.0 | 12.0 | 0.00 | 0.00 | 0.00 | 88 | 1014.5 |
| 20260504044620 | 48 | 203 | 4.0 | 12.0 | 0.00 | 0.00 | 0.00 | 88 | 1014.6 |
| 20260504044120 | 48 | 225 | 1.0 | 11.0 | 0.00 | 0.00 | 0.00 | 87 | 1014.3 |
| 20260504043621 | 48 | 219 | 6.0 | 11.0 | 0.00 | 0.00 | 0.00 | 87 | 1014.2 |
| 20260504043121 | 48 | 244 | 3.0 | 9.0 | 0.00 | 0.00 | 0.00 | 87 | 1014.3 |
| 20260504042621 | 48 | 219 | 6.0 | 9.0 | 0.00 | 0.00 | 0.00 | 87 | 1014.4 |
| 20260504042121 | 48 | 210 | 4.0 | 5.0 | 0.00 | 0.00 | 0.00 | 87 | 1014.2 |
| 20260504041620 | 49 | 229 | 3.0 | 6.0 | 0.00 | 0.00 | 0.00 | 87 | 1014.2 |
| 20260504041120 | 49 | 219 | 4.0 | 6.0 | 0.00 | 0.00 | 0.00 | 87 | 1014.2 |
| 20260504040620 | 48 | 240 | 2.0 | 6.0 | 0.00 | 0.00 | 0.00 | 87 | 1014.0 |
| 20260504040150 | 48 | 232 | 2.0 | 7.0 | 0.00 | 0.00 | 0.00 | 87 | 1014.1 |
| 20260504035120 | 48 | 232 | 6.0 | 9.0 | 0.00 | 0.00 | 0.00 | 86 | 1013.8 |
| 20260504034620 | 49 | 238 | 3.0 | 8.0 | 0.00 | 0.00 | 0.00 | 86 | 1013.6 |
| 20260504034150 | 49 | 268 | 7.0 | 9.0 | 0.00 | 0.00 | 0.00 | 86 | 1014.0 |
| 20260504033650 | 49 | 262 | 2.0 | 10.0 | 0.00 | 0.00 | 0.00 | 86 | 1013.7 |
| 20260504032650 | 49 | 232 | 5.0 | 14.0 | 0.00 | 0.00 | 0.00 | 85 | 1013.6 |
| 20260504032150 | 49 | 223 | 1.0 | 14.0 | 0.00 | 0.00 | 0.00 | 85 | 1013.6 |
| 20260504031650 | 49 | 242 | 3.0 | 10.0 | 0.00 | 0.00 | 0.00 | 86 | 1013.5 |
| 20260504031149 | 49 | 224 | 3.0 | 10.0 | 0.00 | 0.00 | 0.00 | 86 | 1013.4 |
| 20260504030650 | 49 | 218 | 4.0 | 9.0 | 0.00 | 0.00 | 0.00 | 86 | 1013.3 |
| 20260504030150 | 49 | 235 | 4.0 | 11.0 | 0.00 | 0.00 | 0.00 | 86 | 1013.2 |
| 20260504025649 | 49 | 232 | 5.0 | 11.0 | 0.00 | 0.00 | 0.00 | 85 | 1012.5 |
| 20260504025150 | 50 | 234 | 0.0 | 10.0 | 0.00 | 0.00 | 0.00 | 85 | 1012.6 |
| 20260504024649 | 50 | 255 | 2.0 | 10.0 | 0.00 | 0.00 | 0.00 | 84 | 1012.7 |
| 20260504024149 | 50 | 237 | 5.0 | 11.0 | 0.00 | 0.00 | 0.00 | 84 | 1012.8 |
| 20260504023149 | 50 | 234 | 3.0 | 10.0 | 0.00 | 0.00 | 0.00 | 84 | 1012.7 |
| 20260504022649 | 50 | 245 | 8.0 | 13.0 | 0.00 | 0.00 | 0.00 | 83 | 1012.9 |
| 20260504022149 | 50 | 222 | 5.0 | 13.0 | 0.00 | 0.00 | 0.00 | 83 | 1013.0 |
| 20260504021649 | 51 | 240 | 4.0 | 12.0 | 0.00 | 0.00 | 0.00 | 82 | 1012.8 |
| 20260504021149 | 51 | 231 | 5.0 | 12.0 | 0.00 | 0.00 | 0.00 | 82 | 1012.6 |
| 20260504020649 | 51 | 197 | 9.0 | 11.0 | 0.00 | 0.00 | 0.00 | 81 | 1012.6 |
| 20260504020149 | 52 | 227 | 6.0 | 11.0 | 0.00 | 0.00 | 0.00 | 80 | 1012.7 |
| 20260504015649 | 52 | 243 | 6.0 | 13.0 | 0.00 | 0.00 | 0.00 | 79 | 1011.8 |
| 20260504015149 | 52 | 229 | 6.0 | 15.0 | 0.00 | 0.00 | 0.00 | 78 | 1011.9 |
| 20260504014149 | 53 | 212 | 5.0 | 15.0 | 0.00 | 0.00 | 0.00 | 76 | 1012.2 |
| 20260504013649 | 54 | 247 | 10.0 | 14.0 | 0.00 | 0.00 | 0.00 | 76 | 1012.0 |
| 20260504012648 | 54 | 227 | 7.0 | 13.0 | 0.00 | 0.00 | 0.00 | 76 | 1011.7 |
| 20260504012149 | 54 | 265 | 10.0 | 14.0 | 0.00 | 0.00 | 0.00 | 76 | 1011.6 |
| 20260504011648 | 55 | 229 | 5.0 | 14.0 | 0.00 | 0.00 | 0.00 | 76 | 1011.8 |
| 20260504011148 | 55 | 217 | 5.0 | 13.0 | 0.00 | 0.00 | 0.00 | 75 | 1011.7 |
| 20260504010648 | 55 | 236 | 6.0 | 13.0 | 0.00 | 0.00 | 0.00 | 75 | 1011.7 |
| 20260504010148 | 56 | 253 | 11.0 | 11.0 | 0.00 | 0.00 | 0.00 | 74 | 1011.6 |
| 20260504005648 | 56 | 230 | 6.0 | 11.0 | 0.00 | 0.00 | 0.00 | 74 | 1011.0 |
| 20260504004648 | 57 | 234 | 9.0 | 10.0 | 0.00 | 0.00 | 0.00 | 73 | 1011.0 |
| 20260504004148 | 57 | 227 | 9.0 | 10.0 | 0.00 | 0.00 | 0.00 | 73 | 1010.8 |
| 20260504003148 | 58 | 256 | 5.0 | 12.0 | 0.00 | 0.00 | 0.00 | 73 | 1011.2 |
| 20260504002647 | 58 | 229 | 6.0 | 12.0 | 0.00 | 0.00 | 0.00 | 72 | 1011.1 |
| 20260504002147 | 58 | 257 | 2.0 | 10.0 | 0.00 | 0.00 | 0.00 | 72 | 1010.9 |
| 20260504001647 | 58 | 214 | 4.0 | 9.0 | 0.00 | 0.00 | 0.00 | 72 | 1011.0 |
| 20260504001148 | 58 | 215 | 5.0 | 9.0 | 0.00 | 0.00 | 0.00 | 72 | 1011.1 |
| 20260504000647 | 58 | 246 | 4.0 | 9.0 | 0.00 | 0.00 | 0.00 | 72 | 1011.0 |
| 20260503235647 | 59 | 263 | 4.0 | 8.0 | 0.00 | 0.00 | 0.00 | 72 | 1011.6 |
| 20260503235147 | 58 | 255 | 8.0 | 8.0 | 0.00 | 0.00 | 0.00 | 72 | 1011.2 |
| 20260503234147 | 59 | 236 | 4.0 | 9.0 | 0.00 | 0.00 | 0.00 | 72 | 1011.3 |
| 20260503233147 | 59 | 218 | 7.0 | 9.0 | 0.00 | 0.00 | 0.00 | 71 | 1011.4 |
| 20260503232647 | 60 | 244 | 7.0 | 9.0 | 0.00 | 0.00 | 0.00 | 71 | 1011.6 |
| 20260503232147 | 60 | 249 | 1.0 | 8.0 | 0.00 | 0.00 | 0.00 | 71 | 1011.7 |
| 20260503231647 | 60 | 232 | 1.0 | 9.0 | 0.00 | 0.00 | 0.00 | 71 | 1011.6 |
| 20260503231147 | 60 | 244 | 0.0 | 11.0 | 0.00 | 0.00 | 0.00 | 70 | 1011.5 |
| 20260503230646 | 61 | 240 | 5.0 | 13.0 | 0.00 | 0.00 | 0.00 | 68 | 1011.8 |
| 20260503230146 | 62 | 223 | 4.0 | 13.0 | 0.00 | 0.00 | 0.00 | 67 | 1011.9 |
| 20260503225647 | 61 | 238 | 3.0 | 12.0 | 0.00 | 0.00 | 0.00 | 69 | 1012.3 |
| 20260503225146 | 61 | 220 | 5.0 | 11.0 | 0.00 | 0.00 | 0.00 | 69 | 1012.2 |
| 20260503224647 | 61 | 238 | 5.0 | 11.0 | 0.00 | 0.00 | 0.00 | 68 | 1012.2 |
| 20260503224146 | 62 | 251 | 4.0 | 9.0 | 0.00 | 0.00 | 0.00 | 67 | 1012.4 |
| 20260503223646 | 62 | 229 | 1.0 | 11.0 | 0.00 | 0.00 | 0.00 | 67 | 1012.5 |
| 20260503223146 | 63 | 242 | 4.0 | 12.0 | 0.00 | 0.00 | 0.00 | 66 | 1012.6 |
| 20260503222646 | 64 | 240 | 10.0 | 13.0 | 0.00 | 0.00 | 0.00 | 64 | 1012.6 |
| 20260503221646 | 64 | 231 | 10.0 | 12.0 | 0.00 | 0.00 | 0.00 | 66 | 1012.6 |
| 20260503221146 | 64 | 196 | 1.0 | 12.0 | 0.00 | 0.00 | 0.00 | 65 | 1012.7 |
| 20260503220646 | 63 | 205 | 7.0 | 15.0 | 0.00 | 0.00 | 0.00 | 66 | 1012.6 |
| 20260503220146 | 63 | 223 | 11.0 | 15.0 | 0.00 | 0.00 | 0.00 | 65 | 1012.6 |
| 20260503215646 | 64 | 225 | 2.0 | 13.0 | 0.00 | 0.00 | 0.00 | 64 | 1013.0 |
| 20260503214646 | 64 | 261 | 6.0 | 11.0 | 0.00 | 0.00 | 0.00 | 65 | 1012.9 |
| 20260503214146 | 63 | 257 | 5.0 | 11.0 | 0.00 | 0.00 | 0.00 | 69 | 1012.8 |
| 20260503213145 | 61 | 235 | 3.0 | 9.0 | 0.00 | 0.00 | 0.00 | 71 | 1012.7 |
| 20260503212145 | 60 | 247 | 7.0 | 13.0 | 0.00 | 0.00 | 0.00 | 72 | 1012.8 |
| 20260503211645 | 61 | 230 | 8.0 | 13.0 | 0.00 | 0.00 | 0.00 | 72 | 1012.7 |
| 20260503211145 | 61 | 238 | 4.0 | 7.0 | 0.00 | 0.00 | 0.00 | 71 | 1012.7 |
| 20260503210645 | 61 | 245 | 7.0 | 8.0 | 0.00 | 0.00 | 0.00 | 72 | 1012.7 |
| 20260503210145 | 61 | 228 | 3.0 | 8.0 | 0.00 | 0.00 | 0.00 | 71 | 1012.6 |
| 20260503205645 | 60 | 234 | 2.0 | 8.0 | 0.00 | 0.00 | 0.00 | 73 | 1012.4 |
| 20260503205145 | 60 | 234 | 0.0 | 7.0 | 0.00 | 0.00 | 0.00 | 74 | 1012.4 |
| 20260503204645 | 59 | 236 | 3.0 | 5.0 | 0.00 | 0.00 | 0.00 | 74 | 1012.4 |
| 20260503204145 | 59 | 261 | 0.0 | 9.0 | 0.00 | 0.00 | 0.00 | 75 | 1012.4 |
| 20260503203645 | 59 | 236 | 1.0 | 9.0 | 0.00 | 0.00 | 0.00 | 75 | 1012.5 |
| 20260503203145 | 59 | 223 | 3.0 | 8.0 | 0.00 | 0.00 | 0.00 | 75 | 1012.5 |
| 20260503202645 | 59 | 223 | 2.0 | 8.0 | 0.00 | 0.00 | 0.00 | 75 | 1012.5 |
| 20260503202145 | 60 | 229 | 3.0 | 9.0 | 0.00 | 0.00 | 0.00 | 75 | 1012.6 |
| 20260503201645 | 60 | 244 | 2.0 | 10.0 | 0.00 | 0.00 | 0.00 | 75 | 1012.7 |
| 20260503201145 | 60 | 233 | 6.0 | 11.0 | 0.00 | 0.00 | 0.00 | 75 | 1012.8 |
| 20260503200645 | 60 | 228 | 7.0 | 11.0 | 0.00 | 0.00 | 0.00 | 74 | 1012.7 |
| 20260503200145 | 61 | 241 | 8.0 | 9.0 | 0.00 | 0.00 | 0.00 | 74 | 1012.9 |
| 20260503195645 | 61 | 282 | 0.0 | 10.0 | 0.00 | 0.00 | 0.00 | 74 | 1012.9 |
| 20260503195145 | 61 | 217 | 1.0 | 10.0 | 0.00 | 0.00 | 0.00 | 74 | 1012.8 |
| 20260503194644 | 61 | 235 | 5.0 | 7.0 | 0.00 | 0.00 | 0.00 | 73 | 1012.7 |
| 20260503194145 | 61 | 302 | 2.0 | 6.0 | 0.00 | 0.00 | 0.00 | 72 | 1012.8 |
| 20260503193644 | 62 | 220 | 3.0 | 9.0 | 0.00 | 0.00 | 0.00 | 71 | 1013.0 |
| 20260503193144 | 62 | 234 | 4.0 | 9.0 | 0.00 | 0.00 | 0.00 | 71 | 1013.0 |
| 20260503192644 | 63 | 244 | 0.0 | 9.0 | 0.00 | 0.00 | 0.00 | 71 | 1013.1 |
| 20260503192144 | 64 | 293 | 3.0 | 12.0 | 0.00 | 0.00 | 0.00 | 69 | 1013.2 |
| 20260503191644 | 65 | 217 | 4.0 | 12.0 | 0.00 | 0.00 | 0.00 | 67 | 1013.3 |
| 20260503191144 | 67 | 232 | 4.0 | 12.0 | 0.00 | 0.00 | 0.00 | 65 | 1013.5 |
| 20260503190644 | 68 | 240 | 9.0 | 14.0 | 0.00 | 0.00 | 0.00 | 65 | 1013.6 |
| 20260503190144 | 68 | 219 | 5.0 | 14.0 | 0.00 | 0.00 | 0.00 | 64 | 1013.6 |
| 20260503185644 | 68 | 227 | 8.0 | 11.0 | 0.00 | 0.00 | 0.00 | 63 | 1013.5 |
| 20260503185144 | 69 | 207 | 3.0 | 11.0 | 0.00 | 0.00 | 0.00 | 62 | 1013.7 |
| 20260503184645 | 69 | 196 | 6.0 | 11.0 | 0.00 | 0.00 | 0.00 | 62 | 1013.6 |
| 20260503184144 | 68 | 226 | 4.0 | 10.0 | 0.00 | 0.00 | 0.00 | 64 | 1013.4 |
| 20260503183644 | 67 | 227 | 4.0 | 10.0 | 0.00 | 0.00 | 0.00 | 66 | 1013.4 |
| 20260503183144 | 66 | 232 | 5.0 | 10.0 | 0.00 | 0.00 | 0.00 | 65 | 1013.2 |
| 20260503182644 | 66 | 246 | 8.0 | 9.0 | 0.00 | 0.00 | 0.00 | 65 | 1013.3 |
| 20260503182144 | 66 | 228 | 4.0 | 9.0 | 0.00 | 0.00 | 0.00 | 66 | 1013.4 |
| 20260503181144 | 65 | 217 | 1.0 | 7.0 | 0.00 | 0.00 | 0.00 | 67 | 1013.4 |
| 20260503180644 | 65 | 238 | 4.0 | 7.0 | 0.00 | 0.00 | 0.00 | 68 | 1013.4 |
| 20260503180144 | 64 | 236 | 4.0 | 8.0 | 0.00 | 0.00 | 0.00 | 68 | 1013.3 |
| 20260503175643 | 64 | 222 | 4.0 | 10.0 | 0.00 | 0.00 | 0.00 | 69 | 1013.6 |
| 20260503175143 | 64 | 189 | 3.0 | 10.0 | 0.00 | 0.00 | 0.00 | 70 | 1013.6 |
| 20260503174643 | 63 | 239 | 2.0 | 9.0 | 0.00 | 0.00 | 0.00 | 71 | 1013.4 |
| 20260503174143 | 63 | 215 | 3.0 | 10.0 | 0.00 | 0.00 | 0.00 | 71 | 1013.4 |
| 20260503173643 | 62 | 259 | 8.0 | 11.0 | 0.00 | 0.00 | 0.00 | 71 | 1013.3 |
| 20260503173143 | 63 | 234 | 6.0 | 11.0 | 0.00 | 0.00 | 0.00 | 71 | 1013.3 |
| 20260503172643 | 63 | 247 | 7.0 | 10.0 | 0.00 | 0.00 | 0.00 | 71 | 1013.3 |
| 20260503172143 | 63 | 229 | 2.0 | 10.0 | 0.00 | 0.00 | 0.00 | 71 | 1013.2 |
| 20260503171643 | 63 | 251 | 2.0 | 10.0 | 0.00 | 0.00 | 0.00 | 71 | 1013.3 |
| 20260503171143 | 63 | 208 | 6.0 | 10.0 | 0.00 | 0.00 | 0.00 | 69 | 1013.2 |
| 20260503170643 | 63 | 232 | 6.0 | 10.0 | 0.00 | 0.00 | 0.00 | 69 | 1013.2 |
| 20260503170143 | 63 | 240 | 3.0 | 10.0 | 0.00 | 0.00 | 0.00 | 70 | 1013.1 |
| 20260503160142 | 59 | 228 | 4.0 | 10.0 | 0.00 | 0.00 | 0.00 | 75 | 1012.7 |
| 20260503150641 | 53 | 341 | 0.0 | 2.0 | 0.00 | 0.00 | 0.00 | 85 | 1012.2 |
| 20260503150141 | 52 | 340 | 0.0 | 3.0 | 0.00 | 0.00 | 0.00 | 87 | 1012.2 |